TimeEDT,TemperatureF,Dew PointF,Humidity,Sea Level PressureIn,VisibilityMPH,Wind Direction,Wind SpeedMPH,Gust SpeedMPH,PrecipitationIn,Events,Conditions,WindDirDegrees,DateUTC
12:15 AM,34.0,31.6,91,30.32,10.0,Calm,Calm,-,N/A,,Clear,0,2012-10-09 04:15:00
12:35 AM,33.3,31.1,92,30.31,10.0,Calm,Calm,-,N/A,,Clear,0,2012-10-09 04:35:00
12:55 AM,33.4,31.5,92,30.31,10.0,Calm,Calm,-,N/A,,Clear,0,2012-10-09 04:55:00
1:15 AM,32.4,30.6,93,30.31,5.0,Calm,Calm,-,N/A,,Clear,0,2012-10-09 05:15:00
1:35 AM,32.5,30.9,94,30.31,5.0,Calm,Calm,-,N/A,,Clear,0,2012-10-09 05:35:00
1:55 AM,32.0,30.0,92,30.32,10.0,Calm,Calm,-,N/A,,Clear,0,2012-10-09 05:55:00
2:15 AM,30.9,28.9,92,30.31,10.0,NE,3.5,-,N/A,,Clear,50,2012-10-09 06:15:00
2:55 AM,31.6,29.5,92,30.31,10.0,Calm,Calm,-,N/A,,Clear,0,2012-10-09 06:55:00
3:15 AM,32.0,29.8,92,30.30,10.0,Calm,Calm,-,N/A,,Clear,0,2012-10-09 07:15:00
3:35 AM,31.6,29.3,91,30.31,1.2,Calm,Calm,-,N/A,,Mist,0,2012-10-09 07:35:00
4:15 AM,31.6,29.5,92,30.31,1.5,Calm,Calm,-,N/A,,Mist,0,2012-10-09 08:15:00
4:35 AM,31.1,29.1,92,30.31,2.5,Calm,Calm,-,N/A,,Clear,0,2012-10-09 08:35:00
4:55 AM,30.4,28.4,92,30.31,3.0,Calm,Calm,-,N/A,,Scattered Clouds,0,2012-10-09 08:55:00
5:15 AM,29.8,27.9,92,30.32,0.8,Calm,Calm,-,N/A,,Mostly Cloudy,0,2012-10-09 09:15:00
5:35 AM,30.0,28.0,92,30.32,0.5,Calm,Calm,-,N/A,Fog,Light Freezing Fog,0,2012-10-09 09:35:00
5:55 AM,29.8,27.7,92,30.32,0.8,Calm,Calm,-,N/A,,Mostly Cloudy,0,2012-10-09 09:55:00
6:15 AM,30.0,28.0,92,30.32,10.0,Calm,Calm,-,N/A,,Clear,0,2012-10-09 10:15:00
6:35 AM,30.6,28.6,92,30.31,7.0,Calm,Calm,-,N/A,,Clear,0,2012-10-09 10:35:00
7:15 AM,30.2,28.2,92,30.31,4.0,Calm,Calm,-,N/A,,Clear,0,2012-10-09 11:15:00
7:35 AM,30.4,28.4,92,30.31,5.0,Calm,Calm,-,N/A,,Clear,0,2012-10-09 11:35:00
7:55 AM,31.5,29.5,92,30.32,10.0,Calm,Calm,-,N/A,,Clear,0,2012-10-09 11:55:00
8:15 AM,32.0,30.2,93,30.32,10.0,Calm,Calm,-,N/A,,Clear,0,2012-10-09 12:15:00
8:35 AM,33.1,31.6,94,30.32,10.0,Calm,Calm,-,N/A,,Clear,0,2012-10-09 12:35:00
8:55 AM,35.2,33.1,92,30.31,10.0,Calm,Calm,-,N/A,,Clear,0,2012-10-09 12:55:00
9:15 AM,36.5,34.3,92,30.31,10.0,Calm,Calm,-,N/A,,Clear,0,2012-10-09 13:15:00
9:35 AM,37.4,33.6,86,30.31,10.0,Calm,Calm,-,N/A,,Clear,0,2012-10-09 13:35:00
9:55 AM,40.6,34.3,78,30.31,10.0,Calm,Calm,-,N/A,,Clear,0,2012-10-09 13:55:00
10:15 AM,44.2,34.7,69,30.31,10.0,Calm,Calm,-,N/A,,Clear,0,2012-10-09 14:15:00
10:35 AM,45.0,35.2,69,30.31,10.0,Calm,Calm,-,N/A,,Mostly Cloudy,0,2012-10-09 14:35:00
10:55 AM,47.7,37.0,67,30.30,10.0,SSW,3.5,-,N/A,,Overcast,200,2012-10-09 14:55:00
11:15 AM,50.5,37.2,60,30.30,10.0,SSW,4.6,-,N/A,,Overcast,210,2012-10-09 15:15:00
11:35 AM,49.5,36.9,62,30.30,10.0,SW,4.6,-,N/A,,Overcast,230,2012-10-09 15:35:00
11:55 AM,50.7,36.5,58,30.29,10.0,SW,3.5,-,N/A,,Overcast,220,2012-10-09 15:55:00
12:15 PM,51.6,35.8,55,30.29,10.0,South,4.6,-,N/A,,Overcast,170,2012-10-09 16:15:00
12:35 PM,52.7,37.2,56,30.28,10.0,SSW,6.9,-,N/A,,Overcast,200,2012-10-09 16:35:00
12:55 PM,53.4,36.7,53,30.26,10.0,South,8.1,-,N/A,,Scattered Clouds,190,2012-10-09 16:55:00
1:15 PM,52.7,36.9,55,30.25,10.0,South,4.6,-,N/A,,Clear,170,2012-10-09 17:15:00
1:35 PM,54.7,38.1,54,30.24,10.0,South,6.9,-,N/A,,Mostly Cloudy,190,2012-10-09 17:35:00
1:55 PM,54.5,37.9,54,30.23,10.0,South,3.5,-,N/A,,Overcast,180,2012-10-09 17:55:00
2:15 PM,55.6,37.6,51,30.22,10.0,South,4.6,-,N/A,,Overcast,180,2012-10-09 18:15:00
2:35 PM,56.3,37.4,49,30.22,10.0,South,3.5,-,N/A,,Mostly Cloudy,170,2012-10-09 18:35:00
2:55 PM,56.8,38.1,50,30.21,10.0,South,8.1,-,N/A,,Mostly Cloudy,170,2012-10-09 18:55:00
3:15 PM,54.7,36.5,50,30.21,10.0,South,5.8,-,N/A,,Mostly Cloudy,180,2012-10-09 19:15:00
3:35 PM,54.3,37.8,54,30.20,10.0,South,4.6,-,N/A,,Scattered Clouds,170,2012-10-09 19:35:00
3:55 PM,54.5,37.8,53,30.20,10.0,South,5.8,-,N/A,,Mostly Cloudy,180,2012-10-09 19:55:00
4:15 PM,54.5,37.4,52,30.20,10.0,South,6.9,-,N/A,,Mostly Cloudy,170,2012-10-09 20:15:00
4:35 PM,54.5,38.3,54,30.19,10.0,South,8.1,-,N/A,,Mostly Cloudy,170,2012-10-09 20:35:00
4:55 PM,52.9,38.1,57,30.19,10.0,South,5.8,-,N/A,,Mostly Cloudy,180,2012-10-09 20:55:00
5:15 PM,52.7,38.7,59,30.19,10.0,South,5.8,-,N/A,,Overcast,170,2012-10-09 21:15:00
5:35 PM,52.7,39.2,60,30.19,10.0,South,5.8,-,N/A,,Overcast,170,2012-10-09 21:35:00
5:55 PM,51.8,39.0,62,30.18,10.0,South,5.8,-,N/A,,Overcast,170,2012-10-09 21:55:00
6:15 PM,50.9,39.0,64,30.18,10.0,South,4.6,-,N/A,,Overcast,180,2012-10-09 22:15:00
6:55 PM,50.0,39.2,66,30.18,10.0,South,3.5,-,N/A,,Overcast,170,2012-10-09 22:55:00
7:15 PM,49.8,39.2,67,30.18,10.0,Calm,Calm,-,N/A,,Overcast,0,2012-10-09 23:15:00
7:35 PM,49.5,39.4,68,30.18,10.0,Calm,Calm,-,N/A,,Overcast,0,2012-10-09 23:35:00
7:55 PM,49.1,39.7,70,30.17,10.0,SE,3.5,-,N/A,,Overcast,140,2012-10-09 23:55:00
8:15 PM,49.1,40.1,71,30.16,10.0,SSE,3.5,-,N/A,,Overcast,150,2012-10-10 00:15:00
8:35 PM,49.1,39.9,71,30.16,10.0,SSE,4.6,-,N/A,,Overcast,160,2012-10-10 00:35:00
8:55 PM,49.1,40.1,71,30.17,10.0,Calm,Calm,-,N/A,,Overcast,0,2012-10-10 00:55:00
9:15 PM,48.4,39.7,72,30.16,10.0,Calm,Calm,-,N/A,,Overcast,0,2012-10-10 01:15:00
9:35 PM,48.2,39.9,73,30.16,10.0,Calm,Calm,-,N/A,,Overcast,0,2012-10-10 01:35:00
9:55 PM,47.5,39.7,75,30.16,10.0,Calm,Calm,-,N/A,,Mostly Cloudy,0,2012-10-10 01:55:00
10:15 PM,46.4,39.7,78,30.15,10.0,Calm,Calm,-,N/A,,Scattered Clouds,0,2012-10-10 02:15:00
10:35 PM,45.7,39.4,79,30.15,10.0,Calm,Calm,-,N/A,,Clear,0,2012-10-10 02:35:00
10:55 PM,45.7,39.6,79,30.15,10.0,Calm,Calm,-,N/A,,Scattered Clouds,0,2012-10-10 02:55:00
11:15 PM,46.6,40.6,80,30.14,10.0,Calm,Calm,-,N/A,,Overcast,0,2012-10-10 03:15:00
11:35 PM,46.8,41.0,80,30.13,10.0,SSE,3.5,-,N/A,,Overcast,150,2012-10-10 03:35:00
11:55 PM,46.6,41.0,81,30.13,10.0,SSE,4.6,-,N/A,,Overcast,160,2012-10-10 03:55:00